Time,TemperatureF,DewpointF,PressureIn,WindDirection,WindDirectionDegrees,WindSpeedMPH,WindSpeedGustMPH,Humidity,HourlyPrecipIn,Conditions,Clouds,dailyrainin,SoftwareType,DateUTC
2013-07-15 00:01:00,56.0,49.0,29.91,NW,315,0.0,-999.0,76,-99.99,,,-99.99,,2013-07-15 07:01:00,
2013-07-15 00:11:00,55.0,48.0,29.91,NW,315,0.0,-999.0,77,-99.99,,,-99.99,,2013-07-15 07:11:00,
2013-07-15 00:21:00,55.0,48.0,29.91,NW,315,0.0,-999.0,77,-99.99,,,-99.99,,2013-07-15 07:21:00,
2013-07-15 00:32:00,55.0,48.0,29.91,NW,315,0.0,-999.0,78,-99.99,,,-99.99,,2013-07-15 07:32:00,
2013-07-15 00:43:00,54.0,47.0,29.91,NW,315,0.0,-999.0,77,-99.99,,,-99.99,,2013-07-15 07:43:00,
2013-07-15 00:53:00,53.0,47.0,29.91,NW,315,0.0,-999.0,80,-99.99,,,-99.99,,2013-07-15 07:53:00,
2013-07-15 01:01:00,53.0,47.0,29.91,NW,315,0.0,-999.0,80,-99.99,,,-99.99,,2013-07-15 08:01:00,
2013-07-15 01:11:00,52.0,46.0,29.91,NW,315,0.0,-999.0,81,-99.99,,,-99.99,,2013-07-15 08:11:00,
2013-07-15 01:32:00,52.0,47.0,29.91,NW,315,0.0,-999.0,82,-99.99,,,-99.99,,2013-07-15 08:32:00,
2013-07-15 01:43:00,51.0,45.0,29.91,NW,315,0.0,-999.0,81,-99.99,,,-99.99,,2013-07-15 08:43:00,
2013-07-15 01:53:00,50.0,45.0,29.91,NW,315,0.0,-999.0,83,-99.99,,,-99.99,,2013-07-15 08:53:00,
2013-07-15 02:01:00,50.0,45.0,29.91,NW,315,0.0,-999.0,83,-99.99,,,-99.99,,2013-07-15 09:01:00,
2013-07-15 02:11:00,50.0,46.0,29.91,NW,315,0.0,-999.0,85,-99.99,,,-99.99,,2013-07-15 09:11:00,
2013-07-15 02:22:00,50.0,46.0,29.91,NW,315,0.0,-999.0,86,-99.99,,,-99.99,,2013-07-15 09:22:00,
2013-07-15 02:32:00,50.0,46.0,29.91,NW,315,0.0,-999.0,86,-99.99,,,-99.99,,2013-07-15 09:32:00,
2013-07-15 02:42:00,50.0,45.0,29.91,NW,315,0.0,-999.0,84,-99.99,,,-99.99,,2013-07-15 09:42:00,
2013-07-15 02:52:00,49.0,44.0,29.91,NW,315,0.0,-999.0,84,-99.99,,,-99.99,,2013-07-15 09:52:00,
2013-07-15 03:02:00,49.0,44.0,29.91,NW,315,0.0,-999.0,84,-99.99,,,-99.99,,2013-07-15 10:02:00,
2013-07-15 03:11:00,48.0,44.0,29.92,NW,315,0.0,-999.0,86,-99.99,,,-99.99,,2013-07-15 10:11:00,
2013-07-15 03:21:00,48.0,45.0,29.92,NW,315,0.0,-999.0,88,-99.99,,,-99.99,,2013-07-15 10:21:00,
2013-07-15 03:32:00,48.0,45.0,29.92,NW,315,0.0,-999.0,88,-99.99,,,-99.99,,2013-07-15 10:32:00,
2013-07-15 03:42:00,47.0,43.0,29.92,NW,315,0.0,-999.0,87,-99.99,,,-99.99,,2013-07-15 10:42:00,
2013-07-15 03:52:00,47.0,43.0,29.92,NW,315,0.0,-999.0,87,-99.99,,,-99.99,,2013-07-15 10:52:00,
2013-07-15 04:01:00,47.0,43.0,29.92,NW,315,0.0,-999.0,87,-99.99,,,-99.99,,2013-07-15 11:01:00,
2013-07-15 04:11:00,47.0,44.0,29.91,NW,315,0.0,-999.0,88,-99.99,,,-99.99,,2013-07-15 11:11:00,
2013-07-15 04:21:00,47.0,43.0,29.91,NW,315,0.0,-999.0,86,-99.99,,,-99.99,,2013-07-15 11:21:00,
2013-07-15 04:32:00,47.0,43.0,29.91,NW,315,0.0,-999.0,86,-99.99,,,-99.99,,2013-07-15 11:32:00,
2013-07-15 04:42:00,46.0,42.0,29.91,NW,315,0.0,-999.0,87,-99.99,,,-99.99,,2013-07-15 11:42:00,
2013-07-15 04:52:00,46.0,43.0,29.92,NW,315,0.0,-999.0,89,-99.99,,,-99.99,,2013-07-15 11:52:00,
2013-07-15 05:01:00,46.0,43.0,29.92,NW,315,0.0,-999.0,89,-99.99,,,-99.99,,2013-07-15 12:01:00,
2013-07-15 05:11:00,46.0,43.0,29.92,NW,315,0.0,-999.0,89,-99.99,,,-99.99,,2013-07-15 12:11:00,
2013-07-15 05:22:00,45.0,42.0,29.92,NW,315,0.0,-999.0,89,-99.99,,,-99.99,,2013-07-15 12:22:00,
2013-07-15 05:32:00,45.0,42.0,29.92,NW,315,0.0,-999.0,89,-99.99,,,-99.99,,2013-07-15 12:32:00,
2013-07-15 05:42:00,45.0,42.0,29.91,NW,315,0.0,-999.0,90,-99.99,,,-99.99,,2013-07-15 12:42:00,
2013-07-15 05:52:00,45.0,42.0,29.91,NW,315,0.0,-999.0,89,-99.99,,,-99.99,,2013-07-15 12:52:00,
2013-07-15 06:01:00,45.0,42.0,29.91,NW,315,0.0,-999.0,89,-99.99,,,-99.99,,2013-07-15 13:01:00,
2013-07-15 06:11:00,46.0,43.0,29.91,NW,315,0.0,-999.0,89,-99.99,,,-99.99,,2013-07-15 13:11:00,
2013-07-15 06:32:00,46.0,43.0,29.91,NW,315,0.0,-999.0,88,-99.99,,,-99.99,,2013-07-15 13:32:00,
2013-07-15 06:43:00,47.0,44.0,29.91,NW,315,0.0,-999.0,88,-99.99,,,-99.99,,2013-07-15 13:43:00,
2013-07-15 06:53:00,47.0,44.0,29.91,NW,315,0.0,-999.0,88,-99.99,,,-99.99,,2013-07-15 13:53:00,
2013-07-15 07:02:00,49.0,45.0,29.91,NW,315,0.0,-999.0,85,-99.99,,,-99.99,,2013-07-15 14:02:00,
2013-07-15 07:11:00,50.0,46.0,29.91,NW,315,0.0,-999.0,85,-99.99,,,-99.99,,2013-07-15 14:11:00,
2013-07-15 07:33:00,52.0,47.0,29.91,NW,315,0.0,-999.0,82,-99.99,,,-99.99,,2013-07-15 14:33:00,
2013-07-15 07:42:00,55.0,48.0,29.91,NW,315,0.0,-999.0,77,-99.99,,,-99.99,,2013-07-15 14:42:00,
2013-07-15 08:02:00,59.0,49.0,29.91,NW,315,0.0,-999.0,70,-99.99,,,-99.99,,2013-07-15 15:02:00,
2013-07-15 08:13:00,63.0,49.0,29.92,NW,315,2.0,-999.0,61,-99.99,,,-99.99,,2013-07-15 15:13:00,
2013-07-15 08:33:00,63.0,48.0,29.92,WNW,286,2.0,-999.0,57,-99.99,,,-99.99,,2013-07-15 15:33:00,
2013-07-15 08:44:00,63.0,47.0,29.92,WNW,285,1.0,-999.0,56,-99.99,,,-99.99,,2013-07-15 15:44:00,
2013-07-15 09:13:00,67.0,48.0,29.91,WNW,294,0.0,-999.0,50,-99.99,,,-99.99,,2013-07-15 16:13:00,
2013-07-15 09:22:00,70.0,47.0,29.91,WNW,294,0.0,-999.0,44,-99.99,,,-99.99,,2013-07-15 16:22:00,
2013-07-15 09:32:00,70.0,47.0,29.91,WNW,294,0.0,-999.0,44,-99.99,,,-99.99,,2013-07-15 16:32:00,
2013-07-15 09:44:00,71.0,49.0,29.91,WNW,284,2.0,-999.0,45,-99.99,,,-99.99,,2013-07-15 16:44:00,
2013-07-15 09:52:00,71.0,49.0,29.91,WNW,301,5.0,-999.0,46,-99.99,,,-99.99,,2013-07-15 16:52:00,
2013-07-15 10:02:00,71.0,49.0,29.91,WNW,301,5.0,-999.0,46,-99.99,,,-99.99,,2013-07-15 17:02:00,
2013-07-15 10:12:00,72.0,49.0,29.91,NW,309,4.0,-999.0,44,-99.99,,,-99.99,,2013-07-15 17:12:00,
2013-07-15 10:22:00,72.0,49.0,29.91,NW,309,4.0,-999.0,44,-99.99,,,-99.99,,2013-07-15 17:22:00,
2013-07-15 10:33:00,73.0,49.0,29.91,WNW,297,5.0,-999.0,42,-99.99,,,-99.99,,2013-07-15 17:33:00,
2013-07-15 10:44:00,74.0,49.0,29.91,West,267,5.0,-999.0,42,-99.99,,,-99.99,,2013-07-15 17:44:00,
2013-07-15 11:02:00,75.0,49.0,29.91,NW,317,5.0,-999.0,40,-99.99,,,-99.99,,2013-07-15 18:02:00,
2013-07-15 11:32:00,77.0,46.0,29.90,NW,313,5.0,-999.0,34,-99.99,,,-99.99,,2013-07-15 18:32:00,
2013-07-15 11:45:00,77.0,46.0,29.91,NW,315,5.0,-999.0,34,-99.99,,,-99.99,,2013-07-15 18:45:00,
2013-07-15 11:52:00,78.0,46.0,29.90,West,276,5.0,-999.0,32,-99.99,,,-99.99,,2013-07-15 18:52:00,
2013-07-15 12:02:00,78.0,46.0,29.90,West,276,5.0,-999.0,32,-99.99,,,-99.99,,2013-07-15 19:02:00,
2013-07-15 12:11:00,78.0,45.0,29.90,WNW,296,6.0,-999.0,31,-99.99,,,-99.99,,2013-07-15 19:11:00,
2013-07-15 12:22:00,78.0,45.0,29.90,WNW,296,6.0,-999.0,31,-99.99,,,-99.99,,2013-07-15 19:22:00,
2013-07-15 12:33:00,78.0,44.0,29.90,WNW,302,7.0,-999.0,30,-99.99,,,-99.99,,2013-07-15 19:33:00,
2013-07-15 12:43:00,79.0,44.0,29.90,WNW,292,6.0,-999.0,29,-99.99,,,-99.99,,2013-07-15 19:43:00,
2013-07-15 13:02:00,80.0,47.0,29.90,NW,309,5.0,-999.0,31,-99.99,,,-99.99,,2013-07-15 20:02:00,
2013-07-15 13:12:00,80.0,47.0,29.90,WNW,299,6.0,-999.0,31,-99.99,,,-99.99,,2013-07-15 20:12:00,
2013-07-15 13:22:00,80.0,45.0,29.89,NNW,329,7.0,-999.0,29,-99.99,,,-99.99,,2013-07-15 20:22:00,
2013-07-15 13:32:00,80.0,45.0,29.89,NNW,329,7.0,-999.0,29,-99.99,,,-99.99,,2013-07-15 20:32:00,
2013-07-15 13:43:00,81.0,46.0,29.89,WNW,299,5.0,-999.0,29,-99.99,,,-99.99,,2013-07-15 20:43:00,
2013-07-15 13:52:00,82.0,44.0,29.89,WNW,290,5.0,-999.0,26,-99.99,,,-99.99,,2013-07-15 20:52:00,
2013-07-15 14:02:00,82.0,44.0,29.89,WNW,290,5.0,-999.0,26,-99.99,,,-99.99,,2013-07-15 21:02:00,
2013-07-15 14:12:00,81.0,44.0,29.89,West,272,5.0,-999.0,27,-99.99,,,-99.99,,2013-07-15 21:12:00,
2013-07-15 14:22:00,81.0,42.0,29.89,WNW,292,7.0,-999.0,25,-99.99,,,-99.99,,2013-07-15 21:22:00,
2013-07-15 14:32:00,81.0,42.0,29.89,WNW,292,7.0,-999.0,25,-99.99,,,-99.99,,2013-07-15 21:32:00,
2013-07-15 14:44:00,81.0,42.0,29.88,NNW,341,6.0,-999.0,25,-99.99,,,-99.99,,2013-07-15 21:44:00,
2013-07-15 14:52:00,82.0,45.0,29.88,WNW,301,7.0,-999.0,27,-99.99,,,-99.99,,2013-07-15 21:52:00,
2013-07-15 15:02:00,82.0,45.0,29.88,WNW,301,7.0,-999.0,27,-99.99,,,-99.99,,2013-07-15 22:02:00,
2013-07-15 15:12:00,82.0,43.0,29.88,WSW,257,3.0,-999.0,25,-99.99,,,-99.99,,2013-07-15 22:12:00,
2013-07-15 15:33:00,83.0,42.0,29.88,West,281,4.0,-999.0,24,-99.99,,,-99.99,,2013-07-15 22:33:00,
2013-07-15 15:43:00,84.0,43.0,29.87,NW,307,5.0,-999.0,24,-99.99,,,-99.99,,2013-07-15 22:43:00,
2013-07-15 16:02:00,84.0,40.0,29.87,WSW,237,6.0,-999.0,21,-99.99,,,-99.99,,2013-07-15 23:02:00,
2013-07-15 16:12:00,83.0,41.0,29.87,NW,315,4.0,-999.0,23,-99.99,,,-99.99,,2013-07-15 23:12:00,
2013-07-15 16:53:00,83.0,42.0,29.86,NW,304,5.0,-999.0,24,-99.99,,,-99.99,,2013-07-15 23:53:00,
2013-07-15 17:02:00,83.0,42.0,29.86,NW,304,5.0,-999.0,24,-99.99,,,-99.99,,2013-07-16 00:02:00,
2013-07-15 17:12:00,83.0,41.0,29.85,WNW,299,6.0,-999.0,23,-99.99,,,-99.99,,2013-07-16 00:12:00,
2013-07-15 17:22:00,83.0,41.0,29.85,WNW,299,6.0,-999.0,23,-99.99,,,-99.99,,2013-07-16 00:22:00,
2013-07-15 17:33:00,84.0,44.0,29.85,WNW,292,2.0,-999.0,25,-99.99,,,-99.99,,2013-07-16 00:33:00,
2013-07-15 17:43:00,83.0,41.0,29.84,West,278,4.0,-999.0,23,-99.99,,,-99.99,,2013-07-16 00:43:00,
2013-07-15 17:52:00,83.0,40.0,29.84,NW,319,4.0,-999.0,22,-99.99,,,-99.99,,2013-07-16 00:52:00,
2013-07-15 18:02:00,83.0,40.0,29.84,NW,319,4.0,-999.0,22,-99.99,,,-99.99,,2013-07-16 01:02:00,
2013-07-15 18:12:00,83.0,41.0,29.84,WNW,295,4.0,-999.0,23,-99.99,,,-99.99,,2013-07-16 01:12:00,
2013-07-15 18:22:00,83.0,41.0,29.84,WNW,295,4.0,-999.0,23,-99.99,,,-99.99,,2013-07-16 01:22:00,
2013-07-15 18:32:00,83.0,41.0,29.84,NW,316,5.0,-999.0,23,-99.99,,,-99.99,,2013-07-16 01:32:00,
2013-07-15 18:44:00,82.0,42.0,29.84,WNW,302,4.0,-999.0,24,-99.99,,,-99.99,,2013-07-16 01:44:00,
2013-07-15 19:02:00,82.0,42.0,29.84,WNW,294,5.0,-999.0,24,-99.99,,,-99.99,,2013-07-16 02:02:00,
2013-07-15 19:11:00,81.0,42.0,29.84,WNW,303,3.0,-999.0,25,-99.99,,,-99.99,,2013-07-16 02:11:00,
2013-07-15 19:34:00,81.0,44.0,29.84,West,259,4.0,-999.0,27,-99.99,,,-99.99,,2013-07-16 02:34:00,
2013-07-15 19:53:00,79.0,44.0,29.84,WNW,286,2.0,-999.0,29,-99.99,,,-99.99,,2013-07-16 02:53:00,
2013-07-15 20:12:00,77.0,43.0,29.84,WNW,286,2.0,-999.0,30,-99.99,,,-99.99,,2013-07-16 03:12:00,
2013-07-15 20:22:00,75.0,47.0,29.84,WNW,286,0.0,-999.0,37,-99.99,,,-99.99,,2013-07-16 03:22:00,
2013-07-15 20:33:00,75.0,47.0,29.84,WNW,286,0.0,-999.0,37,-99.99,,,-99.99,,2013-07-16 03:33:00,
2013-07-15 20:44:00,72.0,47.0,29.85,WNW,286,0.0,-999.0,41,-99.99,,,-99.99,,2013-07-16 03:44:00,
2013-07-15 20:53:00,70.0,47.0,29.85,WNW,286,0.0,-999.0,44,-99.99,,,-99.99,,2013-07-16 03:53:00,
2013-07-15 21:01:00,70.0,47.0,29.85,WNW,286,0.0,-999.0,44,-99.99,,,-99.99,,2013-07-16 04:01:00,
2013-07-15 21:12:00,69.0,46.0,29.85,WNW,286,0.0,-999.0,43,-99.99,,,-99.99,,2013-07-16 04:12:00,
2013-07-15 21:22:00,69.0,46.0,29.85,WNW,286,0.0,-999.0,43,-99.99,,,-99.99,,2013-07-16 04:22:00,
2013-07-15 21:32:00,69.0,46.0,29.85,WNW,286,0.0,-999.0,43,-99.99,,,-99.99,,2013-07-16 04:32:00,
2013-07-15 21:43:00,65.0,47.0,29.86,WNW,286,0.0,-999.0,52,-99.99,,,-99.99,,2013-07-16 04:43:00,
2013-07-15 21:53:00,65.0,47.0,29.86,WNW,286,0.0,-999.0,52,-99.99,,,-99.99,,2013-07-16 04:53:00,
2013-07-15 22:01:00,64.0,48.0,29.87,WNW,286,0.0,-999.0,57,-99.99,,,-99.99,,2013-07-16 05:01:00,
2013-07-15 22:11:00,62.0,48.0,29.87,WNW,286,0.0,-999.0,61,-99.99,,,-99.99,,2013-07-16 05:11:00,
2013-07-15 22:21:00,61.0,49.0,29.87,WNW,286,0.0,-999.0,64,-99.99,,,-99.99,,2013-07-16 05:21:00,
2013-07-15 22:32:00,61.0,49.0,29.87,WNW,286,0.0,-999.0,64,-99.99,,,-99.99,,2013-07-16 05:32:00,
2013-07-15 23:01:00,58.0,47.0,29.88,WNW,286,0.0,-999.0,67,-99.99,,,-99.99,,2013-07-16 06:01:00,
2013-07-15 23:21:00,58.0,48.0,29.87,WNW,286,0.0,-999.0,69,-99.99,,,-99.99,,2013-07-16 06:21:00,
2013-07-15 23:31:00,58.0,48.0,29.87,WNW,286,0.0,-999.0,70,-99.99,,,-99.99,,2013-07-16 06:31:00,